Погода в Карлыханове

Россия / Республика Башкортостан     55°57′08″N   58°41′15″E
темп.,
°C
ветер,
м/с
пор.,
м/с
влажн.,
%
обл.,
%
осадки,
мм/ч
давл.,
гПа
погр.,
м
20 января, ср
ср2023:00−11юв61493100 2.1 1015753
02:00−12юв51193100 0.9 1014599
05:00−14вюв4894100 1.5 1014371
08:00−16юв1297100 0.2 101353
11:00−15юз2597100 0.4 1013229
14:00−14зюз4794100 0.1 1013500
17:00−17зюз5994100 0.3 1013493
20:00−21зюз41096100 0.1 1015469
21 января, чт
чт2123:00−23зюз3997100 0.1 1016387
02:00−22юз41197100 0.1 1017504
05:00−22юз51096100 0.3 1017442
08:00−23юз4998100 0.2 1016349
11:00−21юз4897100 0.4 1016378
14:00−19юз4896100 0.2 1016439
17:00−19юз4996100 0.4 1015461
20:00−20юз41097100 0.1 1015403
22 января, пт
пт2223:00−20юз41097100 0.3 1015413
02:00−19юз4998100 0.3 1015363
05:00−20юз4998100 0.6 1015364
08:00−19юз3797100 0.3 1015288
11:00−19юз3798100 0.4 1016292
14:00−16зюз2593100 0.2 1017554
17:00−17с1297100 0.4 101983
20:00−21ссв229898 0.1 102326
23 января, сб
сб2323:00−26всв389485 0.1 1027162
02:00−29в36930 0.0 1030116
05:00−30в229336 0.0 103225
08:00−31вюв229480 0.0 103419
11:00−27вюв119680 0.0 103462
14:00−21ююв2493100 0.0 1032219
17:00−19ююв2592100 0.0 1030219
20:00−16юв3996100 0.9 1028342
24 января, вс
вс2423:00−13ю31196100 2.3 1026669
02:00−12юз41095100 1.1 1025580
05:00−12ююз3995100 2.0 1024434
08:00−11ююз3895100 1.2 1023376
11:00−8ююз51095100 2.8 1022395
14:00−4юз51196100 2.1 1021502
17:00−2юз61297100 3.8 1020574
20:00−1юз61298100 2.3 1021650